sat.trackr.live / text

‹ back to catalog

UNKNOWN

NORAD 82683

UNKNOWN UNKNOWN UNKNOWN

§ Identity

Operator
Country
Launch date
Launch site
Launch vehicle
Mass (kg)
RCS (m²)

External: N2YO · Heavens-Above

§ Orbital elements

Epoch: 2026-09-16T22:08:34.565856Z

Period
101.35 min
Inclination
98.1414°
Eccentricity
0.0207920
Mean motion
14.20751767 rev/d
Perigee alt
673.1 km
Apogee alt
972.5 km
Semi-major
7,200.9 km
B*
2.3633e-4
RAAN
312.6349°
Arg perigee
300.7659°
Mean anomaly
57.3192°
Rev number
50,176

§ Raw data

UNKNOWN1 82683U          26259.92262229  .00000590  00000+0  23633-3 0  99982 82683  98.1414 312.6349 0207920 300.7659  57.3192 14.20751767501760

JSON: /api/v1/satellites/82683 · /tle

For live sub-satellite position, see the globe view (requires WebGL).

§ Visibility from observer

Set your observer location to see the next 7 days of passes ≥ 10°. The values pass through the URL so the page stays shareable.

No JS? Fill the form by hand. The geolocation button needs JavaScript.